TimeAKST,TemperatureF,Dew PointF,Humidity,Sea Level PressureIn,VisibilityMPH,Wind Direction,Wind SpeedMPH,Gust SpeedMPH,PrecipitationIn,Events,Conditions,WindDirDegrees,DateUTC
12:53 AM,39.0,30.0,70,29.49,10.0,SSW,24.2,32.2,N/A,,Overcast,200,2013-02-20 09:53:00
1:53 AM,37.0,30.9,79,29.49,10.0,SSW,20.7,28.8,0.00,,Overcast,200,2013-02-20 10:53:00
3:53 AM,37.0,30.9,79,29.42,10.0,SSW,20.7,31.1,0.00,,Overcast,210,2013-02-20 12:53:00
4:53 AM,37.0,30.9,79,29.39,10.0,SSW,9.2,-,N/A,,Overcast,200,2013-02-20 13:53:00
5:53 AM,37.0,30.9,79,29.36,10.0,South,13.8,21.9,0.00,,Overcast,190,2013-02-20 14:53:00
6:53 AM,37.0,30.9,79,29.34,10.0,SSW,19.6,24.2,0.00,,Overcast,200,2013-02-20 15:53:00
7:53 AM,37.9,32.0,79,29.33,10.0,SSW,19.6,34.5,0.01,,Overcast,200,2013-02-20 16:53:00
8:53 AM,39.0,30.9,73,29.31,10.0,SSW,28.8,39.1,N/A,,Overcast,210,2013-02-20 17:53:00
9:53 AM,39.0,30.9,73,29.31,10.0,SSW,27.6,40.3,N/A,,Overcast,210,2013-02-20 18:53:00
10:53 AM,39.9,30.9,70,29.31,10.0,SSW,24.2,38.0,N/A,,Overcast,210,2013-02-20 19:53:00
11:53 AM,39.0,30.9,73,29.32,10.0,SSW,31.1,41.4,N/A,,Overcast,210,2013-02-20 20:53:00
12:53 PM,37.9,30.9,76,29.31,10.0,SSW,29.9,40.3,0.00,Rain,Light Rain,210,2013-02-20 21:53:00
1:53 PM,37.9,32.0,79,29.30,10.0,SSW,21.9,33.4,0.00,Rain,Light Rain,200,2013-02-20 22:53:00
2:53 PM,37.9,32.0,79,29.29,10.0,SSW,19.6,32.2,0.00,Rain,Light Rain,200,2013-02-20 23:53:00
3:53 PM,39.0,32.0,76,29.28,10.0,SSW,32.2,40.3,0.00,,Overcast,210,2013-02-21 00:53:00
4:53 PM,39.0,32.0,76,29.27,10.0,SSW,32.2,40.3,N/A,,Overcast,210,2013-02-21 01:53:00
5:53 PM,39.0,30.9,73,29.29,10.0,SSW,15.0,33.4,N/A,,Overcast,200,2013-02-21 02:53:00
6:53 PM,39.0,30.0,70,29.29,10.0,SSW,18.4,-,N/A,,Overcast,200,2013-02-21 03:53:00
7:53 PM,39.0,30.9,73,29.30,10.0,SSW,17.3,-,0.00,Rain,Light Rain,200,2013-02-21 04:53:00
8:53 PM,37.0,30.9,79,29.29,10.0,SSW,15.0,27.6,0.00,,Overcast,200,2013-02-21 05:53:00
9:53 PM,37.0,30.9,79,29.30,10.0,SSW,13.8,23.0,N/A,,Overcast,200,2013-02-21 06:53:00
10:53 PM,37.0,30.0,76,29.31,10.0,Variable,6.9,-,N/A,,Overcast,0,2013-02-21 07:53:00
11:32 PM,35.6,30.2,81,29.31,10.0,Calm,Calm,-,N/A,,Overcast,0,2013-02-21 08:32:00
11:53 PM,37.0,30.0,76,29.32,10.0,SSW,4.6,-,N/A,,Overcast,200,2013-02-21 08:53:00